Terug naar catalogus

DMSP 5D-2 F13 DEB

ActiefSSO
NORAD 40470·DEBRIS·🇺🇸 United States

Gelanceerd Mar 24, 1995 vanaf Vandenberg Space Force Base

Loading…

Volgende Passages (komende 24 uur)

TLE

VersSource: Space-Track

Epoch: Sep 13, 2026, 11:20 UTC

1 40470U 95015BN  26256.47243556  .00002013  00000-0  89285-3 0  9993
2 40470  98.9997 259.0049 0042679 190.2747 169.7563 14.23755642592478

Volg DMSP 5D-2 F13 DEB in realtime met AllMySat

Download on the App Store